SCP
-0 0 0 0 0 0 0 0 0 0 0 -0 0 0 0 0 0 -0 -0 -0 -0 -0 -0 -0 -0 -0 -0 -0 -0 0 -0 -0 -0 0 0 -0 -0 0 -0 0 0 0 0 -0
-0 -0 0 0 0 0 0 0 -0 0 0 0 0 0 0 0 0 -0 -0 0 -0 -0 -0 -0 -0 -0 -0 -0 -0 -0 -0 -0 -0 0 -0 -0 -0 -0 -0 -0 -0 -0 0 0
-0 -0 0 0 0 0 0 0 -0 0 0 0 0 0 0 0 0 0 0 0 -0 -0 -0 -0 -0 -0 -0 -0 -0 -0 -0 -0 -0 -0 -0 -0 -0 -0 0 -0 0 -0 -0 -0
-0 0 0 0 0 0 -0 0 0 0 0 0 0 0 0 0 1 0 0 0 -0 -0 -0 -0 -0 -0 -0 -0 -0 -0 -0 -0 -0 -0 -0 -0 -0 -0 -0 -0 -0 0 0 0
0 0 0 1 0 0 0 0 0 0 0 0 0 0 0 0 0 0 0 0 -0 -0 -0 -0 -0 -0 -0 -0 -0 -0 -0 -0 -0 -0 -0 -0 -0 -0 -0 -0 -0 0 0 0
0 0 0 0 0 1 0 0 0 0 0 0 0 0 0 0 0 0 0 0 -0 -0 -0 -0 -0 -0 -0 -0 -0 -0 -0 -0 -0 -0 -0 0 0 0 0 0 -0 0 0 0
-0 0 0 0 0 0 1 0 0 0 0 0 0 0 0 0 0 0 0 0 -0 -0 -0 -0 -0 -0 -0 -0 0 -0 -0 -0 -0 -0 0 0 0 0 0 0 0 0 0 0
-0 -0 0 0 0 0 0 0 0 0 0 0 0 0 0 0 0 0 0 0 -0 -0 -0 -0 -0 -0 -0 -0 0 0 -0 -0 -0 -0 -0 0 0 0 0 0 0 0 0 0
0 -0 0 0 0 0 0 0 0 0 0 0 0 0 0 0 0 0 0 0 -0 -0 -0 -0 -0 -0 -0 -0 0 0 -0 -0 -0 -0 -0 -0 0 0 0 0 0 0 0 0
0 0 0 0 0 0 0 0 0 0 0 0 0 0 0 0 1 0 0 0 0 -0 -0 0 -0 -0 -0 -0 0 -0 -0 -0 -0 -0 -0 -0 0 0 0 0 0 0 0 0
0 0 0 0 0 0 0 0 0 0 0 0 0 0 0 0 0 0 1 1 0 -0 -0 -0 0 -0 -0 -0 0 -0 -0 -0 -0 -0 0 0 0 0 0 0 0 0 0 0
0 0 0 0 0 0 0 0 0 0 0 0 0 0 0 0 0 0 1 1 0 0 -0 -0 -0 -0 -0 -0 -0 -0 -0 -0 -0 -0 0 0 0 0 0 0 -0 0 0 0
0 0 0 0 0 0 0 0 0 0 0 0 0 0 0 0 0 0 0 1 1 1 0 -0 -0 -0 -0 -0 -0 -0 -0 -0 -0 0 -0 0 0 0 0 0 0 0 0 -0
0 0 0 0 0 0 0 0 0 0 0 0 0 0 0 0 0 0 0 0 0 1 0 0 -0 -0 -0 -0 -0 -0 -0 -0 -0 -0 0 0 0 0 0 0 0 0 0 0
0 0 0 0 0 0 0 0 0 0 0 0 0 0 0 0 0 0 0 0 0 0 1 0 0 -0 -0 -0 -0 -0 -0 -0 -0 -0 0 0 0 0 0 0 0 0 -0 -0
0 0 0 0 0 0 0 0 0 0 0 0 0 0 0 0 0 0 0 0 0 0 0 1 1 0 0 -0 -0 -0 -0 -0 -0 0 -0 0 0 0 0 0 0 0 0 0
-0 0 0 -0 0 0 0 0 0 0 0 0 0 0 0 0 0 0 0 0 0 0 0 2 2 1 1 0 0 0 0 0 0 -0 0 0 0 0 0 0 0 0 0 0
0 0 -0 -0 -0 -0 0 0 0 0 0 0 0 0 0 0 0 0 0 0 0 0 1 1 1 0 1 1 0 0 0 0 0 0 0 0 0 0 0 0 0 0 0 0
0 0 -0 -0 0 0 0 0 0 0 0 0 0 0 0 0 0 0 0 0 0 0 0 0 0 0 1 1 1 1 0 0 0 0 0 -0 0 0 0 0 0 0 0 0
0 0 -0 -0 -0 -0 0 0 0 0 0 0 0 0 0 0 0 0 0 0 0 0 0 0 0 1 1 0 0 0 1 0 0 0 0 0 0 0 0 0 0 0 0 0
0 0 0 0 -0 0 0 0 0 0 0 0 0 0 0 0 0 0 0 0 0 0 0 0 0 0 0 0 0 1 1 1 1 0 0 0 0 0 0 0 0 0 0 0
0 0 0 0 0 0 0 0 0 0 0 0 0 0 0 0 0 0 0 0 0 0 0 0 0 0 0 0 0 0 1 1 1 1 1 0 0 0 0 0 0 0 0 0
0 0 0 0 0 0 0 0 -0 0 0 0 0 0 0 0 0 0 0 0 0 0 0 0 0 0 0 0 0 0 1 1 2 2 1 1 0 0 0 0 0 0 0 0
-0 0 0 0 0 0 0 0 -0 0 -0 -0 -0 -0 -0 0 0 -0 0 0 0 0 0 0 0 0 0 0 0 0 1 1 1 2 2 0 0 0 0 0 0 0 0 0
0 0 -0 0 0 0 0 0 -0 0 0 -0 -0 -0 -0 -0 -0 0 0 0 0 0 0 0 0 0 0 0 0 0 0 0 3 2 2 1 0 1 1 0 0 0 0 0
0 0 0 0 0 0 0 0 0 -0 -0 0 -0 -0 -0 -0 -0 -0 -0 0 0 0 0 0 0 0 0 0 0 0 0 1 1 3 3 3 1 2 2 3 2 2 2 2
0 0 0 0 0 0 0 -0 0 0 -0 -0 -0 -0 -0 -0 -0 -0 -0 -0 0 0 0 0 0 0 0 0 0 0 0 0 0 1 2 3 4 3 4 4 2 2 2 1
Wind_Speed_500mb
40 34 41 56 58 64 59 48 39 34 34 27 28 25 7 41 47 49 52 51 51 50 49 47 44 41 37 35 33 29 27 28 13 15 11 19 19 18 16 15 13 12 11 8
27 23 40 57 58 60 55 56 50 35 40 21 36 45 19 32 44 45 46 46 46 45 46 45 44 39 37 35 34 29 27 22 19 20 21 21 18 22 20 18 16 18 16 11
7 21 37 40 47 49 50 50 49 28 13 36 37 31 19 12 41 39 41 47 45 44 45 44 42 40 39 36 33 30 28 23 23 24 24 19 18 17 22 23 21 21 16 14
4 9 13 19 27 47 54 47 37 29 33 34 30 33 34 24 20 16 41 45 43 44 46 43 40 40 37 36 35 32 30 28 26 25 22 22 22 20 21 25 25 18 21 17
5 17 17 13 26 10 30 34 35 30 29 24 19 32 29 24 19 17 3 42 42 45 47 43 42 42 39 37 37 35 31 30 29 26 22 20 18 19 16 20 25 25 18 17
5 8 8 10 45 26 47 25 27 23 21 14 8 13 14 20 19 20 19 40 41 46 46 46 44 44 41 38 38 37 33 30 33 21 21 19 19 9 13 13 13 12 19 21
15 8 10 33 45 32 9 9 23 30 25 25 22 16 12 14 14 14 8 30 41 47 47 48 48 46 42 39 38 37 34 32 32 30 28 24 18 13 13 7 7 14 23 24
3 5 10 57 27 19 8 29 31 30 26 25 27 24 15 13 14 10 5 7 43 50 51 50 50 48 43 42 38 36 37 36 35 31 26 18 16 20 16 13 3 16 21 24
8 5 24 43 38 42 40 39 36 31 29 27 26 25 15 14 8 7 12 18 37 47 51 49 50 49 44 43 40 38 39 39 39 29 28 19 18 21 16 16 12 23 29 21
3 15 19 46 36 39 39 33 28 31 30 26 24 21 21 20 22 4 11 24 36 48 49 49 51 48 44 43 41 41 41 45 40 34 33 23 19 24 16 19 16 22 28 25
9 15 9 41 46 41 30 27 26 24 22 23 24 23 23 23 26 28 10 13 38 46 48 48 50 48 47 45 44 44 46 44 45 40 35 30 28 20 27 15 24 20 28 26
4 14 14 19 21 26 27 25 26 20 21 21 22 23 23 24 23 27 26 4 24 37 45 45 46 48 48 47 48 47 52 48 46 41 44 33 35 32 24 28 23 12 32 16
8 18 13 11 16 20 20 22 20 20 18 19 23 24 24 25 26 28 28 27 3 14 37 45 46 48 48 49 51 52 55 50 47 45 43 42 38 36 36 32 33 29 27 26
20 21 18 25 23 17 18 19 19 16 17 19 21 22 25 25 25 25 26 25 23 6 14 40 49 48 50 52 54 57 58 52 51 50 46 44 45 42 39 43 42 40 39 36
28 14 14 16 19 28 23 19 19 19 21 20 21 21 23 25 27 28 26 25 27 20 13 18 45 51 50 52 57 61 61 60 55 50 49 45 46 45 44 45 37 38 47 51
19 31 32 35 36 31 33 31 28 27 23 24 25 25 28 27 26 25 23 24 28 31 29 19 17 45 55 53 57 62 62 61 58 52 50 50 46 50 48 47 50 45 50 50
22 23 23 20 30 34 38 36 32 31 31 30 31 32 31 29 27 24 26 27 27 29 31 28 26 22 30 58 64 63 64 61 60 60 51 54 54 53 53 52 50 55 57 59
19 26 31 38 26 25 28 28 29 30 31 30 31 31 30 28 29 29 29 31 31 29 26 26 21 25 26 15 66 73 68 64 62 70 65 55 61 59 56 55 54 53 56 60
22 27 31 31 28 29 28 27 31 31 36 32 33 33 30 29 30 31 30 29 31 31 25 36 34 32 36 27 8 53 74 68 67 68 75 65 59 63 62 60 59 58 55 58
21 24 26 29 28 20 23 23 27 29 33 38 37 37 36 33 33 33 33 33 31 30 38 27 26 24 23 38 39 26 39 72 72 71 77 73 64 69 69 67 65 62 63 61
18 20 24 26 26 30 31 26 27 31 36 39 40 40 41 42 34 31 30 30 23 32 40 28 28 38 37 36 35 39 41 32 74 73 76 82 77 67 73 71 72 72 68 70
12 16 19 21 24 27 31 30 29 30 32 39 41 42 44 41 40 38 29 29 37 35 17 19 25 36 45 41 38 34 40 49 38 74 70 81 81 78 76 82 78 79 80 74
11 15 18 21 24 26 27 30 30 30 33 35 40 43 45 40 38 42 48 40 41 42 38 35 34 36 49 46 35 36 35 54 47 44 77 70 87 87 81 82 87 82 79 85
7 12 16 18 20 22 29 28 26 29 34 31 37 38 49 53 46 34 45 50 51 42 55 55 45 40 39 49 45 30 28 41 52 43 48 73 65 86 90 79 83 87 86 82
6 9 11 13 18 18 24 27 24 28 35 34 40 40 48 53 49 60 52 53 54 49 47 46 51 38 35 41 43 39 41 40 34 34 58 69 83 71 79 81 83 81 85 89
6 5 6 9 3 13 19 25 28 31 33 38 37 42 49 61 64 67 61 57 54 48 38 35 39 33 42 43 40 34 41 43 50 41 30 34 52 57 59 67 65 72 76 74
10 2 8 10 15 16 19 15 22 27 31 38 34 39 52 63 64 69 71 63 62 48 35 34 28 40 45 42 45 47 43 48 47 44 42 27 23 30 40 43 56 60 62 71
Wind_Direction_500mb
270 274 296 289 240 227 215 204 225 231 209 160 132 120 109 125 143 148 149 154 154 160 161 161 164 162 165 165 168 170 166 163 156 161 148 142 150 149 154 152 165 141 141 127
265 286 286 290 289 222 212 193 220 233 212 170 104 77 117 143 149 157 148 153 162 164 163 166 164 167 168 166 165 170 161 147 151 156 150 154 162 159 155 175 166 152 150 136
257 232 283 284 250 232 208 188 212 211 163 90 85 84 58 44 146 150 154 162 166 168 166 168 169 171 169 166 166 167 161 154 155 154 152 149 136 147 159 160 150 161 155 173
76 155 228 233 286 218 202 183 209 95 83 81 95 86 71 41 33 135 157 160 166 167 165 168 170 170 170 167 167 167 160 158 156 153 150 153 155 147 163 160 164 168 174 189
248 206 309 15 350 280 186 66 49 42 54 60 68 109 55 28 17 356 339 161 163 167 165 169 172 172 172 170 171 169 164 162 166 165 153 159 162 174 195 189 189 186 180 182
150 319 190 237 312 350 114 87 41 68 43 16 274 154 63 15 353 341 359 155 161 164 166 170 174 173 175 175 176 173 167 167 165 155 154 141 159 169 124 129 135 170 184 153
247 309 7 323 311 328 9 96 62 66 50 34 56 52 27 358 350 330 314 156 163 167 170 173 176 175 178 178 182 176 167 167 166 158 161 174 165 150 119 133 131 136 152 152
220 64 274 322 16 66 141 78 71 59 51 46 49 41 34 8 342 325 206 160 162 162 169 176 178 179 185 181 183 178 169 169 169 164 164 168 145 143 144 161 125 131 144 148
30 103 277 299 40 45 60 61 56 57 43 41 41 35 26 17 4 310 211 201 177 168 169 176 181 183 188 184 184 180 175 172 172 172 175 169 151 150 169 154 114 126 124 130
90 17 315 347 41 47 49 51 43 43 41 38 32 32 23 27 10 309 208 208 182 169 171 178 183 185 187 186 186 183 177 176 176 174 175 172 165 159 166 163 168 151 142 147
44 3 2 352 17 23 36 38 42 37 27 29 25 28 17 28 8 3 348 213 179 175 176 181 185 188 188 187 187 187 182 179 181 183 182 184 174 170 183 163 199 187 165 157
24 314 356 332 19 15 17 27 24 17 20 23 22 19 19 23 14 354 350 275 178 182 181 183 188 191 191 191 189 190 185 185 188 188 191 191 188 186 188 184 203 164 181 157
317 331 319 10 359 355 3 12 10 7 14 19 16 10 17 11 10 360 12 36 347 195 192 189 189 194 195 194 193 195 188 191 195 194 198 194 194 198 201 187 196 203 189 186
6 356 4 354 353 355 9 9 2 4 18 11 8 3 4 4 360 6 7 6 357 348 232 203 193 196 200 198 198 197 200 199 198 201 202 200 201 203 202 209 199 206 204 205
4 10 346 1 3 13 9 5 4 5 1 355 356 353 353 349 347 349 357 359 350 342 310 241 210 201 201 203 203 200 204 203 204 210 203 206 205 205 207 207 210 208 212 211
29 31 32 26 21 10 7 17 14 9 360 354 353 349 341 338 337 339 349 356 353 342 332 316 260 216 200 202 206 204 205 209 209 208 210 211 209 209 210 209 209 204 214 216
24 27 26 35 47 34 23 20 14 4 354 348 339 332 329 330 332 334 337 341 338 334 338 322 313 281 204 207 205 205 203 212 211 215 214 213 214 213 214 214 212 208 208 225
20 43 38 60 49 44 32 20 13 3 356 346 342 338 335 332 326 325 326 328 332 333 331 315 313 270 254 200 211 204 206 208 215 215 216 217 215 217 218 216 217 216 214 221
34 34 37 50 45 43 36 28 22 12 7 358 355 351 340 329 327 325 324 323 322 324 325 336 311 281 267 260 253 215 207 209 213 220 217 216 222 217 216 219 219 220 217 219
20 30 36 42 42 39 31 24 23 11 16 14 8 2 354 342 332 326 322 313 307 314 322 316 337 340 301 277 273 242 221 215 213 218 216 218 220 221 217 219 220 221 220 221
357 16 19 32 35 33 30 25 18 9 10 11 9 3 354 350 342 331 322 321 318 322 315 310 325 311 290 288 265 258 243 238 218 217 219 214 219 223 219 218 220 220 222 221
11 357 5 14 21 33 25 22 19 15 14 11 10 5 358 354 349 343 324 315 307 302 310 283 290 293 292 294 284 289 257 238 260 221 223 221 221 218 222 221 220 222 220 222
349 356 358 2 9 20 18 17 19 16 14 13 11 8 4 356 347 341 333 330 292 278 279 277 272 278 286 296 294 270 280 243 245 259 226 231 222 224 221 225 225 222 225 222
344 351 349 358 357 14 11 10 12 12 10 12 9 7 2 356 354 341 325 335 335 312 272 267 271 276 286 286 288 291 284 267 252 262 264 239 237 222 226 225 229 229 224 229
355 353 331 357 350 13 1 358 5 7 6 9 8 7 357 359 357 354 343 336 336 330 318 284 261 264 285 288 280 283 272 252 257 270 254 254 246 241 224 229 228 232 230 227
291 293 342 349 41 14 10 1 3 6 5 2 3 5 358 1 5 1 350 350 342 336 333 330 298 272 281 286 280 275 279 281 270 269 266 254 239 240 222 220 220 227 226 225
257 291 335 359 58 31 9 354 10 2 358 358 1 2 358 10 7 7 5 358 353 346 332 323 319 308 287 277 270 270 274 270 270 284 266 266 258 243 237 242 243 241 243 238
Wind_Speed_850mb
40 34 41 56 58 64 59 48 39 34 34 27 28 25 7 41 47 49 52 51 51 50 49 47 44 41 37 35 33 29 27 28 13 15 11 19 19 18 16 15 13 12 11 8
27 23 40 57 58 60 55 56 50 35 40 21 36 45 19 32 44 45 46 46 46 45 46 45 44 39 37 35 34 29 27 22 19 20 21 21 18 22 20 18 16 18 16 11
7 21 37 40 47 49 50 50 49 28 13 36 37 31 19 12 41 39 41 47 45 44 45 44 42 40 39 36 33 30 28 23 23 24 24 19 18 17 22 23 21 21 16 14
4 9 13 19 27 47 54 47 37 29 33 34 30 33 34 24 20 16 41 45 43 44 46 43 40 40 37 36 35 32 30 28 26 25 22 22 22 20 21 25 25 18 21 17
5 17 17 13 26 10 30 34 35 30 29 24 19 32 29 24 19 17 3 42 42 45 47 43 42 42 39 37 37 35 31 30 29 26 22 20 18 19 16 20 25 25 18 17
5 8 8 10 45 26 47 25 27 23 21 14 8 13 14 20 19 20 19 40 41 46 46 46 44 44 41 38 38 37 33 30 33 21 21 19 19 9 13 13 13 12 19 21
15 8 10 33 45 32 9 9 23 30 25 25 22 16 12 14 14 14 8 30 41 47 47 48 48 46 42 39 38 37 34 32 32 30 28 24 18 13 13 7 7 14 23 24
3 5 10 57 27 19 8 29 31 30 26 25 27 24 15 13 14 10 5 7 43 50 51 50 50 48 43 42 38 36 37 36 35 31 26 18 16 20 16 13 3 16 21 24
8 5 24 43 38 42 40 39 36 31 29 27 26 25 15 14 8 7 12 18 37 47 51 49 50 49 44 43 40 38 39 39 39 29 28 19 18 21 16 16 12 23 29 21
3 15 19 46 36 39 39 33 28 31 30 26 24 21 21 20 22 4 11 24 36 48 49 49 51 48 44 43 41 41 41 45 40 34 33 23 19 24 16 19 16 22 28 25
9 15 9 41 46 41 30 27 26 24 22 23 24 23 23 23 26 28 10 13 38 46 48 48 50 48 47 45 44 44 46 44 45 40 35 30 28 20 27 15 24 20 28 26
4 14 14 19 21 26 27 25 26 20 21 21 22 23 23 24 23 27 26 4 24 37 45 45 46 48 48 47 48 47 52 48 46 41 44 33 35 32 24 28 23 12 32 16
8 18 13 11 16 20 20 22 20 20 18 19 23 24 24 25 26 28 28 27 3 14 37 45 46 48 48 49 51 52 55 50 47 45 43 42 38 36 36 32 33 29 27 26
20 21 18 25 23 17 18 19 19 16 17 19 21 22 25 25 25 25 26 25 23 6 14 40 49 48 50 52 54 57 58 52 51 50 46 44 45 42 39 43 42 40 39 36
28 14 14 16 19 28 23 19 19 19 21 20 21 21 23 25 27 28 26 25 27 20 13 18 45 51 50 52 57 61 61 60 55 50 49 45 46 45 44 45 37 38 47 51
19 31 32 35 36 31 33 31 28 27 23 24 25 25 28 27 26 25 23 24 28 31 29 19 17 45 55 53 57 62 62 61 58 52 50 50 46 50 48 47 50 45 50 50
22 23 23 20 30 34 38 36 32 31 31 30 31 32 31 29 27 24 26 27 27 29 31 28 26 22 30 58 64 63 64 61 60 60 51 54 54 53 53 52 50 55 57 59
19 26 31 38 26 25 28 28 29 30 31 30 31 31 30 28 29 29 29 31 31 29 26 26 21 25 26 15 66 73 68 64 62 70 65 55 61 59 56 55 54 53 56 60
22 27 31 31 28 29 28 27 31 31 36 32 33 33 30 29 30 31 30 29 31 31 25 36 34 32 36 27 8 53 74 68 67 68 75 65 59 63 62 60 59 58 55 58
21 24 26 29 28 20 23 23 27 29 33 38 37 37 36 33 33 33 33 33 31 30 38 27 26 24 23 38 39 26 39 72 72 71 77 73 64 69 69 67 65 62 63 61
18 20 24 26 26 30 31 26 27 31 36 39 40 40 41 42 34 31 30 30 23 32 40 28 28 38 37 36 35 39 41 32 74 73 76 82 77 67 73 71 72 72 68 70
12 16 19 21 24 27 31 30 29 30 32 39 41 42 44 41 40 38 29 29 37 35 17 19 25 36 45 41 38 34 40 49 38 74 70 81 81 78 76 82 78 79 80 74
11 15 18 21 24 26 27 30 30 30 33 35 40 43 45 40 38 42 48 40 41 42 38 35 34 36 49 46 35 36 35 54 47 44 77 70 87 87 81 82 87 82 79 85
7 12 16 18 20 22 29 28 26 29 34 31 37 38 49 53 46 34 45 50 51 42 55 55 45 40 39 49 45 30 28 41 52 43 48 73 65 86 90 79 83 87 86 82
6 9 11 13 18 18 24 27 24 28 35 34 40 40 48 53 49 60 52 53 54 49 47 46 51 38 35 41 43 39 41 40 34 34 58 69 83 71 79 81 83 81 85 89
6 5 6 9 3 13 19 25 28 31 33 38 37 42 49 61 64 67 61 57 54 48 38 35 39 33 42 43 40 34 41 43 50 41 30 34 52 57 59 67 65 72 76 74
10 2 8 10 15 16 19 15 22 27 31 38 34 39 52 63 64 69 71 63 62 48 35 34 28 40 45 42 45 47 43 48 47 44 42 27 23 30 40 43 56 60 62 71
Wind_Direction_850mb
270 274 296 289 240 227 215 204 225 231 209 160 132 120 109 125 143 148 149 154 154 160 161 161 164 162 165 165 168 170 166 163 156 161 148 142 150 149 154 152 165 141 141 127
265 286 286 290 289 222 212 193 220 233 212 170 104 77 117 143 149 157 148 153 162 164 163 166 164 167 168 166 165 170 161 147 151 156 150 154 162 159 155 175 166 152 150 136
257 232 283 284 250 232 208 188 212 211 163 90 85 84 58 44 146 150 154 162 166 168 166 168 169 171 169 166 166 167 161 154 155 154 152 149 136 147 159 160 150 161 155 173
76 155 228 233 286 218 202 183 209 95 83 81 95 86 71 41 33 135 157 160 166 167 165 168 170 170 170 167 167 167 160 158 156 153 150 153 155 147 163 160 164 168 174 189
248 206 309 15 350 280 186 66 49 42 54 60 68 109 55 28 17 356 339 161 163 167 165 169 172 172 172 170 171 169 164 162 166 165 153 159 162 174 195 189 189 186 180 182
150 319 190 237 312 350 114 87 41 68 43 16 274 154 63 15 353 341 359 155 161 164 166 170 174 173 175 175 176 173 167 167 165 155 154 141 159 169 124 129 135 170 184 153
247 309 7 323 311 328 9 96 62 66 50 34 56 52 27 358 350 330 314 156 163 167 170 173 176 175 178 178 182 176 167 167 166 158 161 174 165 150 119 133 131 136 152 152
220 64 274 322 16 66 141 78 71 59 51 46 49 41 34 8 342 325 206 160 162 162 169 176 178 179 185 181 183 178 169 169 169 164 164 168 145 143 144 161 125 131 144 148
30 103 277 299 40 45 60 61 56 57 43 41 41 35 26 17 4 310 211 201 177 168 169 176 181 183 188 184 184 180 175 172 172 172 175 169 151 150 169 154 114 126 124 130
90 17 315 347 41 47 49 51 43 43 41 38 32 32 23 27 10 309 208 208 182 169 171 178 183 185 187 186 186 183 177 176 176 174 175 172 165 159 166 163 168 151 142 147
44 3 2 352 17 23 36 38 42 37 27 29 25 28 17 28 8 3 348 213 179 175 176 181 185 188 188 187 187 187 182 179 181 183 182 184 174 170 183 163 199 187 165 157
24 314 356 332 19 15 17 27 24 17 20 23 22 19 19 23 14 354 350 275 178 182 181 183 188 191 191 191 189 190 185 185 188 188 191 191 188 186 188 184 203 164 181 157
317 331 319 10 359 355 3 12 10 7 14 19 16 10 17 11 10 360 12 36 347 195 192 189 189 194 195 194 193 195 188 191 195 194 198 194 194 198 201 187 196 203 189 186
6 356 4 354 353 355 9 9 2 4 18 11 8 3 4 4 360 6 7 6 357 348 232 203 193 196 200 198 198 197 200 199 198 201 202 200 201 203 202 209 199 206 204 205
4 10 346 1 3 13 9 5 4 5 1 355 356 353 353 349 347 349 357 359 350 342 310 241 210 201 201 203 203 200 204 203 204 210 203 206 205 205 207 207 210 208 212 211
29 31 32 26 21 10 7 17 14 9 360 354 353 349 341 338 337 339 349 356 353 342 332 316 260 216 200 202 206 204 205 209 209 208 210 211 209 209 210 209 209 204 214 216
24 27 26 35 47 34 23 20 14 4 354 348 339 332 329 330 332 334 337 341 338 334 338 322 313 281 204 207 205 205 203 212 211 215 214 213 214 213 214 214 212 208 208 225
20 43 38 60 49 44 32 20 13 3 356 346 342 338 335 332 326 325 326 328 332 333 331 315 313 270 254 200 211 204 206 208 215 215 216 217 215 217 218 216 217 216 214 221
34 34 37 50 45 43 36 28 22 12 7 358 355 351 340 329 327 325 324 323 322 324 325 336 311 281 267 260 253 215 207 209 213 220 217 216 222 217 216 219 219 220 217 219
20 30 36 42 42 39 31 24 23 11 16 14 8 2 354 342 332 326 322 313 307 314 322 316 337 340 301 277 273 242 221 215 213 218 216 218 220 221 217 219 220 221 220 221
357 16 19 32 35 33 30 25 18 9 10 11 9 3 354 350 342 331 322 321 318 322 315 310 325 311 290 288 265 258 243 238 218 217 219 214 219 223 219 218 220 220 222 221
11 357 5 14 21 33 25 22 19 15 14 11 10 5 358 354 349 343 324 315 307 302 310 283 290 293 292 294 284 289 257 238 260 221 223 221 221 218 222 221 220 222 220 222
349 356 358 2 9 20 18 17 19 16 14 13 11 8 4 356 347 341 333 330 292 278 279 277 272 278 286 296 294 270 280 243 245 259 226 231 222 224 221 225 225 222 225 222
344 351 349 358 357 14 11 10 12 12 10 12 9 7 2 356 354 341 325 335 335 312 272 267 271 276 286 286 288 291 284 267 252 262 264 239 237 222 226 225 229 229 224 229
355 353 331 357 350 13 1 358 5 7 6 9 8 7 357 359 357 354 343 336 336 330 318 284 261 264 285 288 280 283 272 252 257 270 254 254 246 241 224 229 228 232 230 227
291 293 342 349 41 14 10 1 3 6 5 2 3 5 358 1 5 1 350 350 342 336 333 330 298 272 281 286 280 275 279 281 270 269 266 254 239 240 222 220 220 227 226 225
257 291 335 359 58 31 9 354 10 2 358 358 1 2 358 10 7 7 5 358 353 346 332 323 319 308 287 277 270 270 274 270 270 284 266 266 258 243 237 242 243 241 243 238